Home   Weather   48°42'N, 9°38'E   Past weeks
Flag for Germany

Past Weather in 48°42'N, 9°38'E, Germany — Yesterday and Last 2 Weeks

Now
81 °F

Passing clouds.


Feels Like: 81 °F
Forecast: 72 / 60 °F
Wind: 5 mph from South

Location: Stuttgart-Echterdingen

Current Time: Jun 19, 2019 at 7:05:29 pm

Latest Report: Jun 19, 2019 at 6:50 pm


Visibility: N/A

Pressure: 29.83 "Hg

Humidity: 45%

Dew Point: 57 °F

Location of 48°42'N, 9°38'ELocation

Past Weather in 48°42'N, 9°38'E — Graph

°F

48°42'N, 9°38'E Temperature Yesterday

Maximum temperature yesterday: 84 °F (at 2:50 pm)
Minimum temperature yesterday: 57 °F (at 3:20 am)
Average temperature yesterday: 71 °F

High & Low Weather Summary for the Past Weeks

 TemperatureHumidityPressure
High86 °F (Jun 19, 12:50 pm)100% (Jun 7, 2:20 am)30.27 "Hg (Jun 7, 2:20 am)
Low45 °F (Jun 7, 2:20 am)23% (Jun 8, 6:50 pm)29.62 "Hg (Jun 5, 7:20 pm)
Average65 °F69%29.98 "Hg
* Reported Jun 4 6:20 pm — Jun 19 6:20 pm, 48°42'N, 9°38'E. Weather by CustomWeather, © 2019

Note: Actual official high and low records may vary slightly from our data, if they occured in-between our weather recording intervals... More about our weather records

Advertising

48°42'N, 9°38'E Weather History for the Previous 24 Hours

Scroll right to see more
 ConditionsComfort  
Time TempWeatherWind HumidityBarometerVisibility
6:20 pm
Wed, Jun 19
81 °FPassing clouds.6 mph48%29.83 "HgN/A
5:50 pm79 °FScattered clouds.5 mph54%29.83 "HgN/A
5:20 pm77 °FThunderstorms. Scattered clouds.7 mph47%29.83 "HgN/A
4:50 pm81 °FThunderstorms. Scattered clouds.9 mph42%29.83 "HgN/A
4:20 pm82 °FPassing clouds.7 mph37%29.83 "HgN/A
3:50 pm86 °FPassing clouds.7 mph29%29.83 "HgN/A
3:20 pm86 °FPassing clouds.9 mph31%29.86 "HgN/A
2:50 pm86 °FPassing clouds.6 mph31%29.86 "HgN/A
2:20 pm86 °FPassing clouds.6 mph35%29.86 "HgN/A
1:50 pm86 °FPassing clouds.5 mph33%29.86 "HgN/A
1:20 pm86 °FPassing clouds.3 mph33%29.89 "HgN/A
12:50 pm86 °FPassing clouds.3 mph33%29.89 "HgN/A
12:20 pm84 °FSunny.3 mph33%29.89 "Hg10 mi
11:50 am84 °FSunny.3 mph35%29.89 "Hg10 mi
11:20 am81 °FPassing clouds.5 mph39%29.89 "HgN/A
10:50 am79 °FPassing clouds.6 mph48%29.89 "HgN/A
10:20 am77 °FPassing clouds.5 mph51%29.89 "HgN/A
9:50 am77 °FPassing clouds.5 mph51%29.89 "HgN/A
9:20 am75 °FMild.3 mph50%29.89 "HgN/A
8:50 am73 °FSunny.2 mph53%29.89 "Hg10 mi
7:50 am68 °FSunny.1 mph69%29.89 "Hg10 mi
7:20 am66 °FSunny.2 mph68%29.89 "Hg10 mi
6:50 am63 °FSunny.2 mph77%29.92 "Hg10 mi
6:20 am63 °FSunny.1 mph77%29.89 "Hg10 mi
5:50 am61 °FSunny.2 mph83%29.89 "Hg10 mi
5:20 am59 °FSunny.2 mph88%29.89 "Hg10 mi
4:50 am61 °FClear.No wind83%29.89 "Hg10 mi
4:20 am61 °FClear.1 mph83%29.89 "Hg10 mi
3:50 am61 °FClear.2 mph83%29.92 "Hg10 mi
3:20 am63 °FClear.2 mph77%29.92 "Hg10 mi
2:50 am64 °FClear.2 mph78%29.92 "Hg10 mi
2:20 am64 °FClear.2 mph83%29.92 "Hg10 mi
1:50 am64 °FClear.2 mph83%29.95 "Hg10 mi
1:20 am64 °FPassing clouds.3 mph83%29.95 "HgN/A
12:20 am66 °FClear.2 mph83%29.95 "Hg10 mi
11:50 pm
Tue, Jun 18
66 °FPassing clouds.3 mph83%29.95 "HgN/A
11:20 pm68 °FClear.1 mph78%29.95 "Hg10 mi
10:50 pm70 °FClear.2 mph73%29.95 "Hg10 mi
10:20 pm70 °FClear.1 mph73%29.95 "Hg10 mi
9:50 pm72 °FClear.1 mph69%29.95 "Hg10 mi
9:20 pm73 °FSunny.2 mph65%29.95 "Hg10 mi
8:50 pm73 °FPassing clouds.3 mph69%29.95 "HgN/A
8:20 pm75 °FSunny.2 mph65%29.95 "Hg10 mi
7:50 pm75 °FPassing clouds.7 mph61%29.95 "HgN/A
7:20 pm77 °FPassing clouds.2 mph57%29.95 "HgN/A
Weather by CustomWeather, © 2019

See weather overview